Location: Gloden
(48.4833°N, 15.3167°E)
Time: 19:39:47
(UTC+00:00)

Cosmos 1092 Rocket - Pass Details

Date: 15 December 2019
Orbit: 953 x 996 km, 83.0° (Epoch: 25 January)

Event Time Altitude Azimuth Distance (km) Brightness Sun altitude
Exits shadow 03:51:21 51° 208° (SSW) 1,192 4.2 -27.3°
Drops below altitude 10° 03:55:57 10° 185° (S) 2,675 6.3 -26.6°
Sets 03:58:26 0° 183° (S) 3,617 7.0 -26.1°
